Simultaneous Nadir Overpasses (SNOs) Predictions

Prediction of SNOs between GOES-15 and METOP-C Satellite Orbit:

Table of predicted SNOs for the next 14.0 days since TLE Epoch: 6/30/2024
Index Date Time (GOES-15) GOES-15 Lat,Lon METOP-C Lat,Lon Distance(km) Time Diff (sec)
1 06/30/2024 17:27:19 0.14, 61.22 0.12, 61.06 17.77 80
2 07/03/2024 05:22:52 -0.13, 61.16 -0.20, 61.50 38.37 80
3 07/04/2024 17:44:32 0.09, 61.21 -0.90, 56.92 489.65 80
4 07/05/2024 17:21:15 0.12, 61.21 0.30, 61.89 79.05 80
5 07/07/2024 05:42:46 -0.08, 61.15 0.74, 57.34 433.83 80
6 07/08/2024 05:19:28 -0.12, 61.15 -0.41, 62.33 134.50 80
7 07/09/2024 17:41:07 0.08, 61.21 -0.72, 57.76 393.69 80
8 07/10/2024 17:17:48 0.11, 61.20 0.44, 62.74 174.99 80
9 07/12/2024 05:39:20 -0.07, 61.15 0.60, 58.19 337.52 80
10 07/13/2024 05:16:01 -0.10, 61.15 -0.56, 63.18 230.73 80
